Flag Weather past 2 weeks in Londonderry, Northern Ireland, United Kingdom

Now
42 °F

Fog.


Feels Like: 40 °F
Forecast: 36 / 44 °F
Wind: 3 mph from East

Location: Castlederg

Current Time: Nov 26, 2014 at 12:57:03 AM

Latest Report: Nov 26, 2014 at 12:00 AM


Visibility: 3 mi

Pressure: 30.07 "Hg

Humidity: 100%

Dew point: 42 °F

Location of LondonderryLocation

Historic Weather in Londonderry — Graph

°F

Londonderry temperature yesterday

Maximum temperature yesterday: 45 °F (at 6:00 PM)
Minimum temperature yesterday: 30 °F (at 7:00 AM)
Average temperature yesterday: 38 °F

Past Weeks' High & Low Weather Summary

 TemperatureHumidityPressure
High53 °F (Nov 14, 5:00 AM)100% (Nov 11, 7:00 PM)30.28 "Hg (Nov 11, 7:00 PM)
Low30 °F (Nov 25, 7:00 AM)73% (Nov 18, 3:00 PM)28.97 "Hg (Nov 14, 6:00 AM)
Average45 °F93%29.70 "Hg
* Reported Nov 10 11:00 PM — Nov 25 11:00 PM, Londonderry, Weather by CustomWeather, © 2014

Note: Actual official high and low records may vary slightly from our data, if they occured in-between our weather recording intervals... More about our weather records

Advertising

Londonderry weather history for previous 24 hours

 ConditionsComfort  
Time TempWeatherWind HumidityBarometerVisibility
11:00 PM
Nov 25
42 °FFog.3 mph100%30.08 "Hg2 mi
10:00 PM42 °FFog.3 mph100%30.09 "Hg3 mi
9:00 PM43 °FFog.5 mph100%30.09 "Hg3 mi
8:00 PM42 °FFog.3 mph100%30.09 "Hg3 mi
7:00 PM44 °FFog.No wind100%30.09 "Hg3 mi
6:00 PM45 °FFog.3 mph100%30.10 "Hg6 mi
5:00 PM45 °FCool.6 mph100%30.10 "Hg3 mi
4:00 PM43 °FQuite cool.No wind100%30.11 "Hg1 mi
3:00 PM42 °FLight rain. Cloudy.2 mph100%30.12 "Hg2 mi
2:00 PM40 °FLight rain. Cloudy.2 mph100%30.14 "Hg1 mi
1:00 PM38 °FLight rain. Cloudy.1 mph100%30.17 "Hg3 mi
12:00 PM36 °FDrizzle. Cloudy.3 mph100%30.19 "Hg5 mi
11:00 AM35 °FChilly.No wind100%30.22 "Hg9 mi
10:00 AM32 °FChilly.No wind100%30.23 "Hg17 mi
9:00 AM31 °FDuststorm.No wind100%30.24 "Hg0 mi
8:00 AM31 °FDuststorm.No wind100%30.24 "Hg1 mi
7:00 AM30 °FSnow flurries. Overcast.No wind100%30.24 "Hg0 mi
6:00 AM31 °FDuststorm.2 mph100%30.24 "Hg1 mi
5:00 AM32 °FDuststorm.2 mph100%30.25 "Hg0 mi
4:00 AM33 °FDuststorm.2 mph100%30.26 "Hg0 mi
3:00 AM35 °FDuststorm.1 mph100%30.26 "Hg0 mi
2:00 AM35 °FDuststorm.3 mph100%30.27 "Hg1 mi
1:00 AM38 °FDuststorm.2 mph100%30.27 "Hg0 mi
12:00 AM38 °FDuststorm.1 mph100%30.28 "Hg0 mi
Weather by CustomWeather, © 2014

See weather overviewHow to use our weather pages